Location: Alphen
(52.1351°N, 4.6549°E)
Time: 01:48:13
(UTC+00:00)

Cosmos 2279 Rocket - Pass Details

Date: 27 January 2021
Orbit: 964 x 979 km, 82.9° (Epoch: 27 February)

Event Time Altitude Azimuth Distance (km) Brightness Sun altitude
Rises 06:22:59 0° 202° (SSW) 3,664 7.0 -10.1°
Reaches altitude 10° 06:25:32 10° 206° (SSW) 2,722 6.3 -9.8°
Maximum altitude 06:31:41 59° 285° (WNW) 1,130 4.1 -8.9°
Drops below altitude 10° 06:37:53 10° 5° (N) 2,744 6.2 -8.0°
Sets 06:40:28 0° 9° (N) 3,696 6.9 -7.6°
